Location: Unspecified
(0.0000°N, 0.0000°E)
Time: 05:49:41
(UTC+00:00)

Altair - All Passes

Search period start: 17 March 2026 00:00
Search period end: 27 March 2026 00:00
Orbit: 1502 x 1682 km, 47.2° (Epoch: 16 March)

Date Brightness Start Highest point End Pass type
(mag) Time Alt. Az. Time Alt. Az. Time Alt. Az.
17 Mar - 04:16:40 10° N 04:23:33 23° NE 04:30:34 10° E visible
17 Mar - 06:18:48 10° NW 06:28:08 72° SW 06:37:55 10° SSE daylight
17 Mar - 08:29:25 10° WSW 08:33:26 13° SW 08:37:32 10° SSW daylight
17 Mar - 17:04:32 10° SSW 17:14:10 52° SE 17:23:24 10° ENE daylight
17 Mar - 19:10:11 10° WSW 19:18:44 34° NW 19:27:02 10° NNE visible
18 Mar - 03:51:59 10° N 03:58:17 20° NE 04:04:40 10° E visible
18 Mar - 05:53:33 10° NW 06:02:55 81° SW 06:12:42 10° SE daylight
18 Mar - 08:03:01 10° WSW 08:08:04 15° SW 08:13:12 10° SSW daylight
18 Mar - 16:39:26 10° SSW 16:48:54 46° SE 16:58:01 10° ENE daylight
18 Mar - 18:44:34 10° WSW 18:53:29 39° NW 19:02:07 10° NNE visible
19 Mar - 03:27:24 10° N 03:32:59 17° NE 03:38:38 10° E visible
19 Mar - 05:28:20 10° NW 05:37:41 89° SW 05:47:27 10° SE visible
19 Mar - 07:36:54 10° W 07:42:42 17° SW 07:48:40 10° S daylight
19 Mar - 16:14:22 10° SSW 16:23:38 41° SE 16:32:33 10° ENE daylight
19 Mar - 18:19:01 10° WSW 18:28:14 44° NW 18:37:08 10° NNE visible
20 Mar - 03:02:59 10° NNE 03:07:40 15° NE 03:12:24 10° ENE visible
20 Mar - 05:03:09 10° NW 05:12:28 83° NE 05:22:11 10° SE visible
20 Mar - 07:10:56 10° W 07:17:21 20° SW 07:23:59 10° S daylight
20 Mar - 15:49:20 10° SSW 15:58:21 37° SE 16:07:03 10° ENE daylight
20 Mar - 17:53:32 10° WSW 18:02:59 49° NW 18:12:07 10° NNE daylight
21 Mar - 02:38:51 10° NNE 02:42:21 12° NE 02:45:52 10° ENE visible
21 Mar - 04:38:00 10° NNW 04:47:15 74° NE 04:56:52 10° SE visible
21 Mar - 06:45:06 10° W 06:52:02 23° SW 06:59:13 10° S daylight
21 Mar - 15:24:20 10° SSW 15:33:03 33° SE 15:41:29 10° ENE daylight
21 Mar - 17:28:04 10° SW 17:37:45 55° NW 17:47:04 10° NNE daylight
22 Mar - 02:15:40 10° NE 02:17:00 10° NE 02:18:21 10° NE visible
22 Mar - 04:12:53 10° NNW 04:22:02 66° NE 04:31:32 10° SE visible
22 Mar - 06:19:22 10° W 06:26:44 26° SW 06:34:22 10° S daylight
22 Mar - 14:59:23 10° S 15:07:45 29° SE 15:15:52 10° ENE daylight
22 Mar - 17:02:39 10° SW 17:12:30 62° NW 17:21:59 10° NNE daylight
23 Mar - 03:47:47 10° NNW 03:56:49 59° NE 04:06:10 10° SE visible
23 Mar - 05:53:42 10° WNW 06:01:27 29° SW 06:09:28 10° S daylight
23 Mar - 14:34:29 10° S 14:42:25 26° SE 14:50:10 10° E daylight
23 Mar - 16:37:16 10° SW 16:47:15 69° NW 16:56:52 10° NNE daylight
23 Mar - 18:49:10 10° WNW 18:52:21 12° NW 18:55:30 10° NNW visible
24 Mar - 03:22:44 10° NNW 03:31:37 52° NE 03:40:45 10° SE visible
24 Mar - 05:28:07 10° WNW 05:36:10 33° SW 05:44:31 10° SSE visible
24 Mar - 14:09:38 10° S 14:17:06 23° SE 14:24:23 10° E daylight
24 Mar - 16:11:56 10° SW 16:22:01 77° NW 16:31:44 10° NE daylight
24 Mar - 18:22:23 10° WNW 18:26:59 14° NW 18:31:32 10° NNW visible
25 Mar - 02:57:42 10° NNW 03:06:24 46° NE 03:15:19 10° ESE visible
25 Mar - 05:02:36 10° WNW 05:10:55 37° SW 05:19:32 10° SSE visible
25 Mar - 13:44:52 10° S 13:51:45 20° SE 13:58:30 10° E daylight
25 Mar - 15:46:38 10° SW 15:56:46 85° NW 16:06:33 10° NE daylight
25 Mar - 17:56:01 10° W 18:01:39 16° NW 18:07:12 10° N daylight
26 Mar - 02:32:42 10° NNW 02:41:10 41° NE 02:49:49 10° ESE visible
26 Mar - 04:37:07 10° WNW 04:45:39 41° SW 04:54:31 10° SSE visible
26 Mar - 13:20:12 10° S 13:26:24 18° SE 13:32:29 10° E daylight
26 Mar - 15:21:21 10° SW 15:31:31 87° SE 15:41:20 10° NE daylight
26 Mar - 17:29:53 10° W 17:36:19 19° NW 17:42:39 10° N daylight
